Wind_Speed
30 29 29 27 27 26 25 25 23 23 22 22 21 21 21 21 21 21 22 22 22 22 21 22 22 21 22 22 22 22 22 22 21 21 21 21 21 21 21 21 21 20 20
32 31 30 29 29 28 27 26 25 25 24 23 23 23 23 22 22 22 22 22 22 22 22 23 23 23 23 23 23 23 23 23 23 23 23 23 23 23 23 23 22 22 22
33 33 32 31 30 29 28 27 26 26 26 25 24 24 23 23 23 23 23 23 23 23 23 24 24 24 24 24 24 24 24 24 23 24 24 24 24 24 24 24 24 24 24
34 34 33 32 32 31 29 29 28 27 27 26 26 25 25 25 25 25 25 25 24 24 24 24 24 25 24 25 25 25 25 25 25 25 25 25 25 25 25 25 25 26 26
36 35 34 33 33 32 31 31 30 29 28 28 27 27 27 27 27 27 26 26 26 25 25 25 25 25 25 26 26 26 26 26 26 26 26 26 26 27 27 27 27 27 28
37 37 35 34 34 33 33 33 32 31 30 29 29 29 28 28 28 28 28 28 27 27 27 27 27 27 27 27 27 27 27 27 28 27 27 27 27 28 28 28 28 29 29
38 38 38 37 36 35 34 34 33 33 32 31 30 30 30 30 30 29 29 29 29 29 29 28 28 28 29 29 29 29 29 29 29 29 29 29 29 29 29 29 29 30 30
41 41 40 39 38 37 36 35 34 34 34 33 32 31 31 31 31 31 31 31 31 31 30 30 29 30 30 30 30 30 30 30 30 30 30 30 30 30 30 30 31 31 31
43 42 42 41 40 39 38 37 37 36 35 34 33 33 32 32 32 32 32 32 32 32 31 31 31 31 30 30 31 31 31 31 31 31 31 31 31 31 31 31 31 32 32
44 44 43 43 42 41 40 39 39 38 37 36 35 35 34 34 33 33 33 33 33 33 33 33 33 32 32 32 32 33 33 33 33 33 33 33 33 33 33 33 33 34 34
45 45 44 44 43 42 41 41 40 40 39 38 37 36 36 36 35 34 34 33 33 33 33 34 34 34 33 33 33 34 34 35 35 35 35 34 34 35 35 35 35 36 35
47 46 46 45 44 43 42 42 41 41 40 39 39 39 38 37 37 36 35 35 35 34 34 34 34 34 34 35 35 35 35 36 36 36 36 36 36 36 36 37 37 37 37
47 47 47 46 45 44 44 43 42 42 41 41 40 40 39 38 38 37 37 37 37 35 35 35 35 35 36 36 37 37 37 38 38 38 38 39 39 39 38 38 38 38 39
47 46 47 46 45 45 45 44 44 43 43 43 42 41 40 39 38 39 38 38 38 38 37 37 37 37 37 38 39 39 39 40 40 40 40 40 40 40 41 41 40 40 40
49 48 48 47 46 46 46 46 45 45 44 44 43 43 42 41 41 40 40 40 40 39 39 38 38 38 39 39 40 40 40 40 41 41 41 41 42 42 42 42 42 42 42
50 50 50 49 48 47 46 46 46 46 46 45 44 44 43 43 43 43 42 42 42 41 40 40 40 40 40 41 41 42 42 42 42 43 43 43 42 42 42 43 43 43 43
52 52 51 50 50 49 48 48 47 47 46 45 45 44 44 44 44 44 44 43 43 42 42 41 41 41 41 42 43 43 43 43 43 43 43 43 43 43 43 44 44 44 44
51 52 51 50 50 50 49 48 48 48 48 47 46 46 45 45 45 45 45 44 44 44 44 43 43 42 42 43 43 43 44 44 44 44 43 43 43 43 44 45 45 45 45
51 51 52 51 51 51 50 50 49 49 49 49 48 48 48 47 47 47 47 46 45 46 45 45 44 43 43 43 44 44 44 44 44 43 44 44 44 44 45 45 45 45 45
50 50 51 52 52 51 51 51 51 50 50 50 50 49 49 48 48 48 48 47 47 46 46 45 45 44 44 43 44 43 43 43 43 43 43 44 44 44 44 45 44 44 45
48 49 50 51 51 51 51 51 51 51 51 51 51 50 49 49 47 47 47 47 47 46 46 46 45 44 43 43 43 43 43 43 44 44 44 44 44 44 44 44 44 44 45
47 48 49 49 50 51 51 52 53 53 52 51 50 50 49 48 47 46 46 46 45 45 45 45 45 44 44 44 43 43 43 44 44 44 44 43 43 43 43 44 44 45 45
49 48 48 49 49 50 51 52 53 53 52 51 50 49 49 48 48 48 48 47 46 45 46 46 45 44 44 44 44 44 44 44 44 44 44 43 43 43 44 45 45 46 46
48 49 49 49 48 48 50 51 52 52 51 51 50 50 49 48 47 48 48 47 47 46 46 46 46 45 44 45 45 45 44 44 44 44 44 44 43 44 45 45 45 45 46
48 48 48 48 48 48 49 49 50 51 50 50 50 50 49 48 48 48 48 48 47 47 46 46 46 45 45 45 46 46 45 45 44 44 45 45 44 44 45 45 45 45 45
47 47 47 47 47 46 47 48 49 50 50 50 50 50 49 49 49 48 48 48 48 47 47 46 46 46 46 46 46 46 45 45 45 44 44 44 44 45 45 45 45 45 44
Wind_Direction
243 243 244 246 248 250 251 252 254 256 258 260 261 262 263 263 265 267 269 272 273 274 275 276 277 277 278 279 281 283 284 286 287 286 286 288 289 291 291 292 291 290 291
243 244 245 247 249 250 251 254 255 256 257 259 261 263 264 264 266 268 269 272 274 276 276 276 277 277 277 278 280 281 283 284 285 285 285 287 288 289 289 290 290 290 290
243 245 245 247 249 251 252 254 255 255 256 258 261 263 264 266 267 268 269 272 274 276 277 277 277 277 277 277 279 280 281 283 285 286 285 286 287 288 289 290 290 291 291
244 245 245 247 249 250 252 253 254 255 256 258 261 262 264 266 267 268 270 272 273 275 277 277 277 277 277 277 278 280 281 282 283 286 286 285 285 286 287 288 289 290 290
243 245 245 247 248 249 251 252 254 255 257 259 261 263 264 266 267 269 271 271 272 273 275 276 276 276 276 277 279 280 281 281 283 284 285 285 286 286 286 287 288 289 290
244 244 246 247 249 250 252 253 254 256 257 260 261 262 265 266 267 268 270 271 272 273 274 275 275 275 276 277 279 279 280 282 281 283 284 286 287 287 286 287 287 287 288
244 245 246 248 250 251 252 254 255 256 258 260 262 263 264 265 266 267 269 270 271 273 274 274 274 275 276 277 278 278 280 282 282 283 284 285 286 286 286 287 288 288 288
246 246 247 248 250 250 252 253 254 256 258 260 261 263 264 266 265 267 268 269 271 272 272 273 274 275 276 277 277 278 279 280 281 282 283 284 285 286 287 288 288 289 289
246 248 248 249 249 250 251 252 253 255 257 259 261 263 264 265 266 267 268 269 270 271 272 272 273 274 275 276 277 278 279 280 281 282 282 283 284 284 286 286 286 289 290
247 248 248 249 250 250 251 252 253 255 256 258 261 262 264 265 266 267 268 269 270 270 271 272 273 274 275 275 276 277 278 279 280 282 282 282 282 283 285 286 287 288 289
247 248 248 249 250 250 251 252 253 254 256 258 260 262 263 264 265 267 267 268 269 270 270 271 272 273 274 275 276 277 278 279 280 281 282 282 283 283 284 285 286 287 288
247 248 248 249 250 250 250 251 253 254 256 258 260 262 263 264 265 266 266 267 268 269 270 272 272 272 272 273 274 276 279 279 280 281 281 282 282 283 284 284 285 286 287
247 246 247 248 249 250 250 251 252 254 256 257 259 261 262 264 264 265 266 267 268 269 269 271 271 272 273 274 274 276 279 279 280 280 281 282 282 283 283 284 285 285 286
246 247 247 247 249 250 251 252 252 254 255 257 258 260 261 262 264 265 266 267 268 269 269 271 271 273 275 275 275 276 278 279 279 279 280 281 282 282 283 283 284 284 286
247 248 249 249 249 250 251 251 253 254 255 256 258 259 260 261 263 265 266 266 268 269 269 270 272 273 274 275 275 276 278 279 279 279 280 282 282 282 283 283 283 284 285
247 248 249 250 250 250 251 252 253 254 255 256 257 258 259 261 263 265 266 267 268 269 270 271 272 273 273 274 275 276 277 278 278 279 280 281 282 282 283 283 283 284 285
248 248 248 249 250 250 251 251 252 253 254 256 257 258 259 261 263 265 266 266 267 268 270 271 273 273 274 275 275 276 276 277 278 279 280 281 281 282 283 284 284 284 285
248 248 248 249 249 250 251 251 252 253 254 256 257 258 259 261 262 264 265 265 266 267 269 271 273 274 274 275 275 276 277 277 278 279 279 280 281 282 283 284 285 285 285
248 249 249 250 250 250 251 252 253 254 255 256 258 259 260 261 262 263 264 265 266 268 269 271 273 274 275 275 275 276 277 278 278 279 280 281 282 283 283 284 284 285 285
249 250 250 250 250 250 251 252 253 254 255 256 258 260 260 261 262 263 264 265 267 268 269 271 272 273 274 275 276 277 277 278 278 280 281 282 283 283 283 284 284 285 285
248 249 250 250 250 250 251 252 253 255 255 257 258 259 260 261 262 263 264 265 266 267 268 270 271 273 273 274 276 276 277 278 279 280 281 282 282 283 283 284 285 285 285
249 249 249 250 251 251 251 251 253 255 256 257 257 258 259 260 261 262 264 265 266 267 268 269 270 272 273 275 276 276 277 278 279 280 280 281 282 282 283 284 285 285 286
250 250 250 251 252 253 252 253 254 254 255 256 257 257 258 260 261 262 263 264 266 267 267 268 269 271 273 275 274 276 277 278 279 280 280 281 281 282 283 284 285 286 286
251 251 252 253 254 254 254 253 253 254 254 255 256 257 258 259 260 261 262 263 265 266 267 268 270 271 272 273 274 276 277 278 278 279 280 281 281 283 285 286 286 287 287
252 252 252 252 253 254 255 254 254 254 255 255 256 257 258 259 260 261 263 264 264 265 266 267 268 270 271 273 274 276 277 278 278 279 279 280 281 282 284 286 286 287 288
251 251 252 252 253 254 255 255 255 255 255 256 257 258 258 258 259 260 262 263 264 265 265 267 268 269 271 273 274 275 277 278 278 278 279 280 281 282 284 285 287 287 288
Height
5818 5821 5823 5825 5828 5829 5831 5833 5835 5836 5837 5838 5839 5840 5841 5842 5843 5844 5844 5845 5845 5845 5845 5845 5845 5845 5845 5845 5845 5844 5844 5843 5842 5841 5840 5839 5838 5838 5837 5836 5835 5834 5833
5812 5815 5818 5820 5822 5824 5826 5828 5830 5831 5833 5834 5835 5836 5837 5838 5839 5839 5840 5840 5840 5840 5840 5840 5840 5840 5840 5840 5840 5839 5839 5838 5837 5837 5835 5834 5834 5833 5832 5831 5830 5829 5828
5806 5809 5811 5814 5816 5818 5821 5823 5824 5826 5827 5829 5830 5831 5832 5833 5833 5834 5835 5835 5835 5836 5835 5835 5835 5835 5835 5835 5834 5834 5833 5833 5832 5831 5830 5829 5829 5828 5827 5826 5825 5824 5823
5799 5802 5805 5808 5810 5812 5815 5817 5818 5820 5821 5823 5824 5825 5826 5827 5828 5829 5829 5830 5830 5830 5830 5830 5830 5830 5830 5829 5829 5829 5828 5827 5827 5826 5825 5824 5823 5822 5821 5820 5820 5819 5818
5792 5795 5798 5801 5804 5806 5808 5810 5812 5814 5815 5817 5818 5820 5820 5821 5822 5823 5823 5824 5824 5824 5825 5825 5824 5824 5824 5824 5823 5823 5822 5822 5821 5820 5819 5818 5817 5816 5816 5815 5814 5813 5812
5785 5788 5791 5794 5797 5799 5801 5803 5805 5807 5809 5811 5812 5813 5814 5815 5816 5817 5817 5818 5818 5818 5818 5818 5818 5818 5818 5818 5817 5817 5816 5816 5815 5814 5813 5812 5811 5810 5809 5809 5808 5807 5806
5778 5781 5784 5787 5789 5792 5794 5796 5798 5800 5802 5804 5805 5806 5807 5808 5809 5810 5810 5811 5811 5812 5812 5812 5812 5811 5811 5811 5811 5810 5810 5809 5808 5808 5807 5806 5805 5804 5803 5802 5801 5800 5799
5769 5772 5776 5779 5781 5784 5787 5789 5791 5793 5795 5796 5798 5799 5800 5802 5802 5803 5803 5804 5804 5805 5805 5805 5805 5805 5805 5804 5804 5804 5803 5802 5802 5801 5800 5799 5798 5797 5796 5795 5794 5793 5792
5760 5763 5767 5770 5773 5776 5778 5781 5783 5785 5787 5788 5790 5792 5793 5794 5795 5796 5796 5796 5797 5797 5797 5797 5798 5798 5797 5797 5797 5796 5796 5795 5795 5794 5793 5792 5791 5790 5789 5788 5787 5785 5784
5750 5754 5757 5761 5764 5766 5769 5772 5774 5777 5778 5780 5781 5783 5784 5786 5787 5788 5788 5788 5789 5789 5790 5790 5790 5790 5790 5790 5789 5789 5788 5788 5787 5786 5785 5784 5784 5782 5781 5780 5779 5778 5776
5740 5743 5747 5750 5754 5757 5760 5762 5765 5767 5769 5771 5773 5774 5775 5776 5778 5779 5780 5781 5781 5781 5781 5781 5782 5782 5782 5782 5781 5780 5780 5779 5779 5778 5777 5776 5775 5774 5773 5772 5771 5769 5768
5730 5733 5737 5740 5744 5747 5750 5753 5755 5757 5760 5762 5763 5765 5766 5767 5769 5770 5771 5772 5772 5773 5773 5773 5773 5773 5773 5773 5772 5772 5771 5770 5769 5769 5768 5767 5766 5765 5764 5763 5762 5761 5759
5719 5722 5726 5729 5733 5736 5739 5742 5745 5747 5750 5752 5753 5755 5756 5758 5759 5760 5761 5762 5763 5764 5764 5764 5764 5764 5764 5764 5763 5763 5762 5761 5760 5759 5758 5757 5756 5755 5754 5753 5752 5751 5749
5708 5711 5715 5718 5722 5725 5728 5731 5734 5737 5739 5741 5743 5745 5746 5748 5749 5750 5751 5752 5753 5754 5755 5756 5755 5755 5754 5754 5754 5753 5752 5751 5750 5749 5748 5747 5746 5745 5744 5743 5742 5741 5739
5696 5700 5703 5707 5710 5714 5717 5720 5723 5726 5728 5731 5733 5735 5736 5738 5739 5740 5741 5742 5743 5744 5745 5746 5746 5745 5744 5744 5743 5742 5742 5741 5740 5739 5737 5737 5735 5734 5733 5732 5731 5730 5728
5685 5688 5692 5695 5698 5702 5705 5708 5712 5714 5717 5719 5722 5724 5725 5727 5728 5729 5730 5731 5732 5732 5733 5735 5735 5735 5734 5733 5733 5732 5731 5730 5729 5728 5727 5726 5725 5723 5722 5720 5719 5718 5717
5672 5676 5680 5683 5686 5690 5693 5696 5700 5702 5705 5708 5710 5712 5714 5716 5717 5718 5719 5720 5721 5721 5722 5723 5723 5723 5723 5723 5722 5721 5720 5719 5718 5717 5716 5715 5713 5712 5710 5709 5707 5706 5704
5660 5663 5667 5671 5674 5678 5681 5684 5687 5690 5693 5696 5698 5700 5702 5704 5706 5707 5707 5708 5709 5710 5710 5711 5712 5712 5712 5711 5710 5710 5709 5708 5707 5706 5704 5703 5702 5700 5699 5697 5695 5694 5692
5647 5650 5654 5658 5661 5665 5668 5671 5674 5677 5680 5683 5686 5688 5690 5691 5693 5694 5695 5696 5697 5698 5699 5699 5700 5700 5700 5699 5699 5698 5697 5696 5695 5694 5692 5691 5690 5689 5687 5685 5683 5681 5680
5634 5638 5641 5645 5648 5652 5655 5658 5662 5665 5667 5670 5673 5675 5677 5678 5680 5682 5683 5684 5685 5686 5687 5687 5688 5688 5688 5687 5687 5686 5686 5685 5684 5683 5681 5680 5678 5677 5675 5673 5672 5669 5667
5621 5625 5628 5632 5635 5639 5642 5645 5648 5651 5654 5657 5660 5662 5664 5666 5667 5669 5670 5672 5673 5673 5674 5675 5676 5676 5676 5676 5676 5675 5674 5673 5672 5671 5670 5668 5667 5665 5663 5661 5659 5657 5655
5608 5612 5615 5618 5622 5625 5628 5631 5634 5638 5641 5644 5646 5649 5651 5653 5654 5656 5658 5659 5660 5661 5662 5663 5663 5664 5664 5664 5664 5663 5662 5661 5661 5661 5658 5657 5655 5653 5651 5650 5647 5645 5643
5595 5599 5602 5605 5608 5611 5614 5618 5621 5624 5627 5630 5633 5635 5638 5640 5642 5643 5645 5646 5648 5648 5650 5650 5651 5652 5652 5652 5652 5651 5650 5649 5648 5647 5646 5645 5643 5641 5639 5637 5635 5633 5630
5582 5586 5589 5592 5595 5598 5600 5603 5606 5610 5613 5616 5619 5622 5625 5627 5629 5630 5632 5634 5635 5636 5637 5638 5639 5640 5639 5639 5638 5638 5637 5636 5636 5634 5633 5633 5631 5630 5627 5625 5623 5620 5617
5569 5572 5575 5578 5581 5584 5587 5589 5592 5596 5599 5602 5605 5608 5611 5614 5616 5618 5619 5621 5623 5624 5624 5624 5625 5626 5626 5626 5625 5625 5624 5624 5623 5623 5621 5620 5619 5618 5616 5613 5610 5607 5605
5556 5559 5562 5565 5568 5571 5573 5576 5578 5582 5586 5589 5592 5595 5598 5600 5602 5604 5605 5607 5609 5611 5611 5612 5612 5613 5613 5613 5612 5612 5611 5611 5610 5610 5609 5607 5606 5604 5603 5601 5598 5595 5592